Location: Passau
(48.5721°N, 13.4363°E)
Time: 23:55:12
(UTC+01:00)

ISS - Pass Details

Date: 15 November 2017
Orbit: 402 x 407 km, 51.6° (Epoch: 21 November)

Event Time Altitude Azimuth Distance (km) Brightness Sun altitude
Exits shadow 04:55:21 40° 129° (SE) 607 -2.6 -22.9°
Drops below altitude 10° 04:57:34 10° 120° (ESE) 1,452 -0.2 -22.5°
Sets 04:59:39 0° 118° (ESE) 2,309 1.1 -22.2°
